User: anonymous   Login
Location: Unspecified
(0.0000°N, 0.0000°E)
Time: 01:37:17
(UTC+00:00)
Language:

SAR-Lupe-3 - Orbit

View from above orbital plane
View from above orbital plane
View from above satellite
View from above satellite

Ground track
Ground track

The orbit data is extracted from the following two-line orbital elements,

1 32283U 07053A   17087.13032984 0.00000800  00000-0  30124-4 0    01
2 32283  98.1473 258.1165 0002000 112.0887 247.9112 15.27135663    04
Epoch (UTC): 28 March 2017 03:07:40
Eccentricity: 0.0002000
inclination: 98.1473°
perigee height: 483 km
apogee height: 486 km
right ascension of ascending node: 258.1165°
argument of perigee: 112.0887°
revolutions per day: 15.27135663
mean anomaly at epoch: 247.9112°
orbit number at epoch: 0

The dashed part of the orbit path shows where the satellite is in the earth's shadow,  

DLR